This is the latest recevied weather packets stored in our database for station/object DF9PM-13. If no packets are shown the sender has not sent any weather packets the latest 10 day(s).
| Time | Temp. | Humidity | Pressure | Rain* | Wind** | Luminosity | Snow |
|---|---|---|---|---|---|---|---|
| 1777185770 | 11.67° C | 65% | 1024 hPa | - | - | - | - |
| 1777185469 | 12.78° C | 64% | 1023.9 hPa | - | - | - | - |
| 1777185170 | 11.67° C | 65% | 1023.9 hPa | - | - | - | - |
| 1777184869 | 11.11° C | 67% | 1024 hPa | - | - | - | - |
| 1777184569 | 11.11° C | 62% | 1023.9 hPa | - | - | - | - |
| 1777184269 | 10° C | 66% | 1023.9 hPa | - | - | - | - |
| 1777183969 | 10° C | 65% | 1023.9 hPa | - | - | - | - |
| 1777183669 | 9.44° C | 69% | 1023.9 hPa | - | - | - | - |
| 1777183369 | 8.89° C | 70% | 1023.9 hPa | - | - | - | - |
| 1777183069 | 8.89° C | 70% | 1023.8 hPa | - | - | - | - |
| 1777182769 | 8.89° C | 72% | 1023.7 hPa | - | - | - | - |
| 1777182469 | 8.33° C | 74% | 1023.7 hPa | - | - | - | - |
| 1777182169 | 8.33° C | 81% | 1023.7 hPa | - | - | - | - |
| 1777181869 | 8.33° C | 93% | 1023.6 hPa | - | - | - | - |
| 1777181569 | 8.33° C | 93% | 1023.4 hPa | - | - | - | - |
| 1777181269 | 8.33° C | 93% | 1023.3 hPa | - | - | - | - |
| 1777180969 | 8.33° C | 82% | 1023.3 hPa | - | - | - | - |
| 1777180668 | 8.33° C | 81% | 1023.1 hPa | - | - | - | - |
| 1777180368 | 8.33° C | 85% | 1023.2 hPa | - | - | - | - |
| 1777180068 | 8.33° C | 85% | 1023.1 hPa | - | - | - | - |
| 1777179768 | 7.78° C | 84% | 1023 hPa | - | - | - | - |
| 1777179468 | 7.78° C | 82% | 1023 hPa | - | - | - | - |
| 1777179168 | 7.78° C | 81% | 1022.9 hPa | - | - | - | - |
| 1777178868 | 7.22° C | 84% | 1022.9 hPa | - | - | - | - |
| 1777178568 | 7.78° C | 78% | 1022.8 hPa | - | - | - | - |
* Rain since midnight (hover to see other rain measurements)
** Current wind speed in m/s (hover to see current wind gust speed)